| time (UTC) | temp F | wind direction | speed MPH | gust MPH | rain 1hr in | rain 24hr in | rain mn in | humidity % | barometer mb |
| 20260506185216 | 79 | 258 | 3.0 | 5.0 | 0.00 | 0.00 | 0.00 | 75 | 1018.7 |
| 20260506184714 | 81 | 258 | 2.0 | 2.0 | 0.00 | 0.00 | 0.00 | 72 | 1018.9 |
| 20260506184211 | 79 | 258 | 1.0 | 1.0 | 0.00 | 0.00 | 0.00 | 74 | 1018.7 |
| 20260506183707 | 80 | 258 | 4.0 | 5.0 | 0.00 | 0.00 | 0.00 | 73 | 1018.9 |
| 20260506183203 | 80 | 269 | 2.0 | 2.0 | 0.00 | 0.00 | 0.00 | 75 | 1018.9 |
| 20260506182701 | 81 | 259 | 1.0 | 1.0 | 0.00 | 0.00 | 0.00 | 73 | 1018.7 |
| 20260506182157 | 78 | 258 | 1.0 | 2.0 | 0.00 | 0.00 | 0.00 | 77 | 1019.1 |
| 20260506181655 | 79 | 258 | 2.0 | 2.0 | 0.00 | 0.00 | 0.00 | 77 | 1019.1 |
| 20260506181152 | 80 | 258 | 2.0 | 2.0 | 0.00 | 0.00 | 0.00 | 76 | 1019.2 |
| 20260506180649 | 78 | 258 | 1.0 | 2.0 | 0.00 | 0.00 | 0.00 | 78 | 1019.1 |
| 20260506180145 | 79 | 258 | 2.0 | 2.0 | 0.00 | 0.00 | 0.00 | 77 | 1019.2 |
| 20260506175642 | 80 | 258 | 3.0 | 3.0 | 0.00 | 0.00 | 0.00 | 74 | 1019.4 |
| 20260506175139 | 79 | 258 | 1.0 | 1.0 | 0.00 | 0.00 | 0.00 | 77 | 1019.3 |
| 20260506174632 | 80 | 258 | 3.0 | 6.0 | 0.00 | 0.00 | 0.00 | 74 | 1019.6 |
| 20260506174128 | 82 | 258 | 2.0 | 3.0 | 0.00 | 0.00 | 0.00 | 73 | 1019.7 |
| 20260506173626 | 82 | 258 | 3.0 | 5.0 | 0.00 | 0.00 | 0.00 | 73 | 1019.3 |
| 20260506173122 | 82 | 258 | 2.0 | 3.0 | 0.00 | 0.00 | 0.00 | 74 | 1019.5 |
| 20260506172620 | 81 | 258 | 3.0 | 3.0 | 0.00 | 0.00 | 0.00 | 74 | 1019.5 |
| 20260506172116 | 81 | 258 | 5.0 | 8.0 | 0.00 | 0.00 | 0.00 | 74 | 1019.9 |
| 20260506171613 | 80 | 258 | 4.0 | 5.0 | 0.00 | 0.00 | 0.00 | 74 | 1019.8 |
| 20260506171110 | 82 | 258 | 1.0 | 2.0 | 0.00 | 0.00 | 0.00 | 74 | 1019.9 |
| 20260506170607 | 82 | 258 | 2.0 | 2.0 | 0.00 | 0.00 | 0.00 | 72 | 1020.2 |
| 20260506170059 | 81 | 258 | 3.0 | 3.0 | 0.00 | 0.00 | 0.00 | 74 | 1020.0 |
| 20260506165558 | 81 | 258 | 2.0 | 3.0 | 0.00 | 0.00 | 0.00 | 76 | 1020.2 |
| 20260506165053 | 81 | 258 | 3.0 | 5.0 | 0.00 | 0.00 | 0.00 | 75 | 1020.2 |
| 20260506164551 | 79 | 258 | 1.0 | 2.0 | 0.00 | 0.00 | 0.00 | 77 | 1020.1 |
| 20260506164048 | 81 | 258 | 2.0 | 2.0 | 0.00 | 0.00 | 0.00 | 76 | 1020.2 |
| 20260506163544 | 82 | 342 | 3.0 | 3.0 | 0.00 | 0.00 | 0.00 | 74 | 1020.2 |
| 20260506163039 | 81 | 258 | 2.0 | 2.0 | 0.00 | 0.00 | 0.00 | 76 | 1020.4 |
| 20260506162535 | 79 | 258 | 3.0 | 3.0 | 0.00 | 0.00 | 0.00 | 78 | 1020.4 |
| 20260506162027 | 80 | 258 | 1.0 | 2.0 | 0.00 | 0.00 | 0.00 | 76 | 1020.5 |
| 20260506161525 | 81 | 259 | 1.0 | 2.0 | 0.00 | 0.00 | 0.00 | 73 | 1020.5 |
| 20260506161022 | 81 | 258 | 1.0 | 2.0 | 0.00 | 0.00 | 0.00 | 73 | 1020.7 |
| 20260506160520 | 80 | 258 | 3.0 | 3.0 | 0.00 | 0.00 | 0.00 | 75 | 1020.8 |
| 20260506160016 | 82 | 258 | 3.0 | 3.0 | 0.00 | 0.00 | 0.00 | 71 | 1020.6 |
| 20260506155514 | 81 | 258 | 1.0 | 2.0 | 0.00 | 0.00 | 0.00 | 73 | 1020.7 |
| 20260506153646 | 81 | 258 | 3.0 | 5.0 | 0.00 | 0.00 | 0.00 | 72 | 1020.8 |
| 20260506153143 | 81 | 258 | 2.0 | 3.0 | 0.00 | 0.00 | 0.00 | 75 | 1021.0 |
| 20260506152640 | 81 | 258 | 3.0 | 6.0 | 0.00 | 0.00 | 0.00 | 74 | 1020.8 |
| 20260506152138 | 82 | 258 | 3.0 | 6.0 | 0.00 | 0.00 | 0.00 | 71 | 1020.8 |
| 20260506151636 | 82 | 258 | 1.0 | 1.0 | 0.00 | 0.00 | 0.00 | 72 | 1020.7 |
| 20260506151132 | 83 | 262 | 1.0 | 2.0 | 0.00 | 0.00 | 0.00 | 69 | 1021.0 |
| 20260506150630 | 82 | 258 | 3.0 | 5.0 | 0.00 | 0.00 | 0.00 | 69 | 1021.0 |
| 20260506150126 | 82 | 258 | 3.0 | 3.0 | 0.00 | 0.00 | 0.00 | 69 | 1021.1 |
| 20260506145623 | 82 | 298 | 1.0 | 3.0 | 0.00 | 0.00 | 0.00 | 70 | 1021.1 |
| 20260506145120 | 80 | 258 | 1.0 | 1.0 | 0.00 | 0.00 | 0.00 | 73 | 1021.0 |
| 20260506144617 | 81 | 293 | 1.0 | 2.0 | 0.00 | 0.00 | 0.00 | 70 | 1021.2 |
| 20260506144114 | 82 | 276 | 1.0 | 2.0 | 0.00 | 0.00 | 0.00 | 68 | 1021.2 |
| 20260506143612 | 82 | 333 | 1.0 | 2.0 | 0.00 | 0.00 | 0.00 | 72 | 1021.0 |
| 20260506143110 | 81 | 278 | 0.0 | 1.0 | 0.00 | 0.00 | 0.00 | 73 | 1020.8 |
| 20260506142608 | 80 | 260 | 1.0 | 2.0 | 0.00 | 0.00 | 0.00 | 71 | 1020.8 |
| 20260506142106 | 81 | 315 | 1.0 | 1.0 | 0.00 | 0.00 | 0.00 | 68 | 1020.8 |
| 20260506141603 | 80 | 299 | 1.0 | 1.0 | 0.00 | 0.00 | 0.00 | 71 | 1021.1 |
| 20260506141101 | 81 | 357 | 0.0 | 0.0 | 0.00 | 0.00 | 0.00 | 74 | 1020.8 |
| 20260506140558 | 81 | 290 | 0.0 | 1.0 | 0.00 | 0.00 | 0.00 | 70 | 1021.0 |
| 20260506140055 | 80 | 265 | 2.0 | 2.0 | 0.00 | 0.00 | 0.00 | 71 | 1021.0 |
| 20260506135552 | 79 | 259 | 1.0 | 2.0 | 0.00 | 0.00 | 0.00 | 71 | 1020.8 |
| 20260506135048 | 80 | 264 | 3.0 | 3.0 | 0.00 | 0.00 | 0.00 | 67 | 1020.8 |
| 20260506134545 | 80 | 300 | 3.0 | 6.0 | 0.00 | 0.00 | 0.00 | 70 | 1020.6 |
| 20260506134041 | 79 | 307 | 3.0 | 3.0 | 0.00 | 0.00 | 0.00 | 69 | 1020.5 |
| 20260506133538 | 80 | 281 | 3.0 | 5.0 | 0.00 | 0.00 | 0.00 | 67 | 1020.8 |
| 20260506133035 | 80 | 119 | 1.0 | 1.0 | 0.00 | 0.00 | 0.00 | 69 | 1020.7 |
| 20260506132532 | 79 | 255 | 2.0 | 3.0 | 0.00 | 0.00 | 0.00 | 70 | 1020.7 |
| 20260506132030 | 79 | 288 | 1.0 | 1.0 | 0.00 | 0.00 | 0.00 | 70 | 1020.6 |
| 20260506131527 | 80 | 311 | 0.0 | 1.0 | 0.00 | 0.00 | 0.00 | 68 | 1020.6 |
| 20260506131023 | 79 | 227 | 1.0 | 2.0 | 0.00 | 0.00 | 0.00 | 67 | 1020.7 |
| 20260506130520 | 78 | 302 | 1.0 | 1.0 | 0.00 | 0.00 | 0.00 | 70 | 1020.6 |
| 20260506130018 | 77 | 185 | 3.0 | 5.0 | 0.00 | 0.00 | 0.00 | 71 | 1020.5 |
| 20260506125516 | 77 | 287 | 1.0 | 1.0 | 0.00 | 0.00 | 0.00 | 72 | 1020.4 |
| 20260506125013 | 77 | 316 | 3.0 | 3.0 | 0.00 | 0.00 | 0.00 | 70 | 1020.2 |
| 20260506124511 | 77 | 342 | 4.0 | 7.0 | 0.00 | 0.00 | 0.00 | 73 | 1020.1 |
| 20260506124009 | 77 | 305 | 1.0 | 2.0 | 0.00 | 0.00 | 0.00 | 72 | 1020.1 |
| 20260506123506 | 78 | 295 | 2.0 | 2.0 | 0.00 | 0.00 | 0.00 | 73 | 1020.2 |
| 20260506123004 | 78 | 289 | 0.0 | 1.0 | 0.00 | 0.00 | 0.00 | 68 | 1020.3 |
| 20260506122500 | 78 | 280 | 0.0 | 0.0 | 0.00 | 0.00 | 0.00 | 71 | 1020.3 |
| 20260506121959 | 77 | 340 | 0.0 | 1.0 | 0.00 | 0.00 | 0.00 | 73 | 1020.0 |
| 20260506121455 | 76 | 266 | 1.0 | 1.0 | 0.00 | 0.00 | 0.00 | 76 | 1020.1 |
| 20260506120952 | 75 | 295 | 0.0 | 0.0 | 0.00 | 0.00 | 0.00 | 74 | 1020.1 |
| 20260506120450 | 75 | 269 | 2.0 | 2.0 | 0.00 | 0.00 | 0.00 | 75 | 1020.2 |
| 20260506115947 | 74 | 284 | 0.0 | 1.0 | 0.00 | 0.00 | 0.00 | 79 | 1020.1 |
| 20260506115445 | 75 | 259 | 1.0 | 2.0 | 0.00 | 0.00 | 0.00 | 75 | 1020.1 |
| 20260506114943 | 75 | 304 | 0.0 | 1.0 | 0.00 | 0.00 | 0.00 | 76 | 1020.1 |
| 20260506114440 | 75 | 285 | 0.0 | 1.0 | 0.00 | 0.00 | 0.00 | 75 | 1020.0 |
| 20260506113939 | 75 | 275 | 1.0 | 1.0 | 0.00 | 0.00 | 0.00 | 76 | 1019.9 |
| 20260506113436 | 74 | 294 | 0.0 | 0.0 | 0.00 | 0.00 | 0.00 | 76 | 1019.8 |
| 20260506112932 | 73 | 259 | 1.0 | 1.0 | 0.00 | 0.00 | 0.00 | 78 | 1019.8 |
| 20260506112430 | 73 | 294 | 0.0 | 0.0 | 0.00 | 0.00 | 0.00 | 77 | 1019.7 |
| 20260506111927 | 73 | 294 | 0.0 | 0.0 | 0.00 | 0.00 | 0.00 | 78 | 1019.7 |
| 20260506111425 | 72 | 283 | 0.0 | 0.0 | 0.00 | 0.00 | 0.00 | 77 | 1019.7 |
| 20260506110922 | 71 | 291 | 0.0 | 1.0 | 0.00 | 0.00 | 0.00 | 83 | 1019.8 |
| 20260506110420 | 70 | 293 | 0.0 | 0.0 | 0.00 | 0.00 | 0.00 | 84 | 1019.8 |
| 20260506105916 | 69 | 293 | 1.0 | 1.0 | 0.00 | 0.00 | 0.00 | 86 | 1019.6 |
| 20260506105413 | 68 | 308 | 0.0 | 0.0 | 0.00 | 0.00 | 0.00 | 86 | 1019.7 |
| 20260506104910 | 67 | 310 | 0.0 | 1.0 | 0.00 | 0.00 | 0.00 | 86 | 1019.6 |
| 20260506104408 | 67 | 295 | 0.0 | 0.0 | 0.00 | 0.00 | 0.00 | 88 | 1019.5 |
| 20260506103905 | 65 | 323 | 1.0 | 1.0 | 0.00 | 0.00 | 0.00 | 91 | 1019.5 |
| 20260506103403 | 64 | 314 | 0.0 | 0.0 | 0.00 | 0.00 | 0.00 | 91 | 1019.5 |
| 20260506102900 | 64 | 289 | 0.0 | 1.0 | 0.00 | 0.00 | 0.00 | 91 | 1019.4 |
| 20260506102358 | 65 | 300 | 0.0 | 1.0 | 0.00 | 0.00 | 0.00 | 91 | 1019.3 |
| 20260506101854 | 64 | 299 | 1.0 | 1.0 | 0.00 | 0.00 | 0.00 | 91 | 1019.4 |
| 20260506101351 | 64 | 310 | 0.0 | 1.0 | 0.00 | 0.00 | 0.00 | 91 | 1019.3 |
| 20260506100848 | 64 | 297 | 0.0 | 0.0 | 0.00 | 0.00 | 0.00 | 90 | 1019.4 |
| 20260506100347 | 64 | 301 | 0.0 | 0.0 | 0.00 | 0.00 | 0.00 | 91 | 1019.3 |
| 20260506095845 | 64 | 313 | 0.0 | 0.0 | 0.00 | 0.00 | 0.00 | 92 | 1019.3 |
| 20260506095342 | 64 | 320 | 1.0 | 1.0 | 0.00 | 0.00 | 0.00 | 91 | 1019.4 |
| 20260506094838 | 64 | 308 | 1.0 | 1.0 | 0.00 | 0.00 | 0.00 | 91 | 1019.3 |
| 20260506094338 | 63 | 313 | 0.0 | 1.0 | 0.00 | 0.00 | 0.00 | 92 | 1019.2 |
| 20260506093835 | 64 | 314 | 0.0 | 0.0 | 0.00 | 0.00 | 0.00 | 91 | 1019.1 |
| 20260506093332 | 64 | 313 | 0.0 | 1.0 | 0.00 | 0.00 | 0.00 | 92 | 1019.3 |
| 20260506092829 | 64 | 314 | 0.0 | 0.0 | 0.00 | 0.00 | 0.00 | 92 | 1019.0 |
| 20260506092327 | 64 | 314 | 0.0 | 0.0 | 0.00 | 0.00 | 0.00 | 92 | 1019.3 |
| 20260506091824 | 64 | 317 | 1.0 | 1.0 | 0.00 | 0.00 | 0.00 | 91 | 1019.2 |
| 20260506091322 | 65 | 312 | 0.0 | 0.0 | 0.00 | 0.00 | 0.00 | 91 | 1019.2 |
| 20260506090819 | 64 | 328 | 1.0 | 1.0 | 0.00 | 0.00 | 0.00 | 91 | 1019.2 |
| 20260506090316 | 64 | 305 | 0.0 | 0.0 | 0.00 | 0.00 | 0.00 | 91 | 1019.0 |
| 20260506085813 | 64 | 285 | 0.0 | 1.0 | 0.00 | 0.00 | 0.00 | 93 | 1018.9 |
| 20260506085309 | 65 | 332 | 0.0 | 0.0 | 0.00 | 0.00 | 0.00 | 91 | 1018.9 |
| 20260506084806 | 65 | 275 | 1.0 | 1.0 | 0.00 | 0.00 | 0.00 | 90 | 1019.0 |
| 20260506084302 | 64 | 335 | 1.0 | 2.0 | 0.00 | 0.00 | 0.00 | 91 | 1018.9 |
| 20260506083759 | 64 | 281 | 0.0 | 0.0 | 0.00 | 0.00 | 0.00 | 92 | 1018.9 |
| 20260506083257 | 65 | 281 | 0.0 | 0.0 | 0.00 | 0.00 | 0.00 | 91 | 1018.7 |
| 20260506082754 | 64 | 308 | 1.0 | 1.0 | 0.00 | 0.00 | 0.00 | 92 | 1018.7 |
| 20260506082249 | 64 | 286 | 1.0 | 1.0 | 0.00 | 0.00 | 0.00 | 91 | 1018.4 |
| 20260506081747 | 64 | 302 | 0.0 | 0.0 | 0.00 | 0.00 | 0.00 | 91 | 1018.5 |
| 20260506081244 | 63 | 336 | 1.0 | 2.0 | 0.00 | 0.00 | 0.00 | 93 | 1018.4 |
| 20260506080743 | 63 | 300 | 0.0 | 1.0 | 0.00 | 0.00 | 0.00 | 93 | 1018.4 |
| 20260506080239 | 63 | 300 | 0.0 | 0.0 | 0.00 | 0.00 | 0.00 | 92 | 1018.3 |
| 20260506073223 | 63 | 316 | 1.0 | 1.0 | 0.00 | 0.00 | 0.00 | 93 | 1018.4 |
| 20260506072719 | 63 | 308 | 0.0 | 0.0 | 0.00 | 0.00 | 0.00 | 92 | 1018.5 |
| 20260506072217 | 63 | 307 | 0.0 | 0.0 | 0.00 | 0.00 | 0.00 | 94 | 1018.6 |
| 20260506071714 | 63 | 293 | 0.0 | 0.0 | 0.00 | 0.00 | 0.00 | 95 | 1018.6 |
| 20260506071212 | 62 | 304 | 0.0 | 0.0 | 0.00 | 0.00 | 0.00 | 95 | 1018.5 |
| 20260506070709 | 63 | 324 | 1.0 | 1.0 | 0.00 | 0.00 | 0.00 | 95 | 1018.9 |
| 20260506070206 | 63 | 304 | 0.0 | 0.0 | 0.00 | 0.00 | 0.00 | 95 | 1018.6 |
| 20260506062143 | 63 | 302 | 0.0 | 0.0 | 0.00 | 0.00 | 0.00 | 95 | 1018.7 |
| 20260506061639 | 64 | 306 | 0.0 | 0.0 | 0.00 | 0.00 | 0.00 | 95 | 1018.7 |
| 20260506061137 | 63 | 320 | 1.0 | 1.0 | 0.00 | 0.00 | 0.00 | 95 | 1018.9 |
| 20260506060635 | 64 | 300 | 0.0 | 0.0 | 0.00 | 0.00 | 0.00 | 95 | 1019.1 |
| 20260506060131 | 64 | 307 | 0.0 | 0.0 | 0.00 | 0.00 | 0.00 | 94 | 1019.0 |
| 20260506051103 | 64 | 300 | 0.0 | 1.0 | 0.00 | 0.00 | 0.00 | 95 | 1019.3 |
| 20260506050602 | 64 | 302 | 0.0 | 0.0 | 0.00 | 0.00 | 0.00 | 95 | 1019.3 |
| 20260506045052 | 64 | 306 | 0.0 | 1.0 | 0.00 | 0.00 | 0.00 | 95 | 1019.5 |
| 20260506044550 | 64 | 302 | 0.0 | 0.0 | 0.00 | 0.00 | 0.00 | 94 | 1019.7 |
| 20260506044046 | 65 | 297 | 0.0 | 0.0 | 0.00 | 0.00 | 0.00 | 94 | 1019.6 |
| 20260506043543 | 65 | 304 | 0.0 | 0.0 | 0.00 | 0.00 | 0.00 | 94 | 1019.5 |
| 20260506043042 | 65 | 326 | 1.0 | 1.0 | 0.00 | 0.00 | 0.00 | 94 | 1019.4 |
| 20260506042541 | 65 | 300 | 0.0 | 0.0 | 0.00 | 0.00 | 0.00 | 94 | 1019.6 |
| 20260506042038 | 64 | 309 | 0.0 | 0.0 | 0.00 | 0.00 | 0.00 | 94 | 1019.5 |
| 20260506041537 | 64 | 302 | 0.0 | 0.0 | 0.00 | 0.00 | 0.00 | 94 | 1019.4 |
| 20260506041033 | 65 | 300 | 0.0 | 1.0 | 0.00 | 0.00 | 0.00 | 94 | 1019.6 |
| 20260506040531 | 65 | 306 | 0.0 | 1.0 | 0.00 | 0.00 | 0.00 | 94 | 1019.6 |
| 20260506040026 | 65 | 304 | 0.0 | 1.0 | 0.00 | 0.00 | 0.00 | 94 | 1019.7 |
| 20260506035524 | 65 | 310 | 0.0 | 1.0 | 0.00 | 0.00 | 0.00 | 94 | 1019.7 |
| 20260506035021 | 65 | 310 | 1.0 | 1.0 | 0.00 | 0.00 | 0.00 | 94 | 1019.9 |
| 20260506034518 | 65 | 297 | 0.0 | 0.0 | 0.00 | 0.00 | 0.00 | 94 | 1020.0 |
| 20260506034015 | 65 | 311 | 1.0 | 1.0 | 0.00 | 0.00 | 0.00 | 94 | 1019.8 |
| 20260506033512 | 65 | 301 | 0.0 | 0.0 | 0.00 | 0.00 | 0.00 | 94 | 1019.8 |
| 20260506033009 | 65 | 302 | 0.0 | 0.0 | 0.00 | 0.00 | 0.00 | 94 | 1019.7 |
| 20260506032507 | 65 | 302 | 0.0 | 0.0 | 0.00 | 0.00 | 0.00 | 94 | 1019.8 |
| 20260506032003 | 65 | 299 | 0.0 | 0.0 | 0.00 | 0.00 | 0.00 | 93 | 1019.8 |
| 20260506031501 | 65 | 299 | 0.0 | 0.0 | 0.00 | 0.00 | 0.00 | 93 | 1019.8 |
| 20260506030958 | 66 | 299 | 0.0 | 0.0 | 0.00 | 0.00 | 0.00 | 93 | 1019.6 |
| 20260506030456 | 66 | 298 | 0.0 | 0.0 | 0.00 | 0.00 | 0.00 | 92 | 1019.7 |
| 20260506025952 | 66 | 306 | 0.0 | 0.0 | 0.00 | 0.00 | 0.00 | 92 | 1019.8 |
| 20260506025449 | 66 | 299 | 0.0 | 0.0 | 0.00 | 0.00 | 0.00 | 92 | 1020.0 |
| 20260506024946 | 66 | 304 | 0.0 | 0.0 | 0.00 | 0.00 | 0.00 | 92 | 1019.9 |
| 20260506024442 | 65 | 304 | 0.0 | 0.0 | 0.00 | 0.00 | 0.00 | 93 | 1019.9 |
| 20260506023938 | 66 | 307 | 0.0 | 0.0 | 0.00 | 0.00 | 0.00 | 93 | 1019.9 |
| 20260506023435 | 66 | 300 | 0.0 | 0.0 | 0.00 | 0.00 | 0.00 | 92 | 1019.9 |
| 20260506022932 | 66 | 300 | 0.0 | 0.0 | 0.00 | 0.00 | 0.00 | 92 | 1019.8 |
| 20260506022430 | 67 | 300 | 0.0 | 1.0 | 0.00 | 0.00 | 0.00 | 91 | 1020.0 |
| 20260506021928 | 67 | 302 | 0.0 | 0.0 | 0.00 | 0.00 | 0.00 | 90 | 1019.9 |
| 20260506021425 | 66 | 300 | 0.0 | 0.0 | 0.00 | 0.00 | 0.00 | 92 | 1019.9 |
| 20260506020922 | 66 | 300 | 0.0 | 0.0 | 0.00 | 0.00 | 0.00 | 92 | 1020.1 |
| 20260506020420 | 67 | 313 | 1.0 | 1.0 | 0.00 | 0.00 | 0.00 | 92 | 1019.6 |
| 20260506015916 | 67 | 314 | 1.0 | 1.0 | 0.00 | 0.00 | 0.00 | 91 | 1019.6 |
| 20260506015414 | 67 | 305 | 0.0 | 0.0 | 0.00 | 0.00 | 0.00 | 91 | 1019.7 |
| 20260506014910 | 67 | 341 | 1.0 | 1.0 | 0.00 | 0.00 | 0.00 | 92 | 1019.6 |
| 20260506014408 | 67 | 328 | 1.0 | 1.0 | 0.00 | 0.00 | 0.00 | 92 | 1019.5 |
| 20260506013904 | 67 | 304 | 0.0 | 1.0 | 0.00 | 0.00 | 0.00 | 92 | 1019.5 |
| 20260506013402 | 67 | 308 | 0.0 | 1.0 | 0.00 | 0.00 | 0.00 | 93 | 1019.9 |
| 20260506012858 | 67 | 311 | 1.0 | 1.0 | 0.00 | 0.00 | 0.00 | 92 | 1019.6 |
| 20260506012354 | 68 | 307 | 0.0 | 1.0 | 0.00 | 0.00 | 0.00 | 92 | 1019.8 |
| 20260506011852 | 68 | 302 | 0.0 | 1.0 | 0.00 | 0.00 | 0.00 | 91 | 1019.6 |
| 20260506011349 | 68 | 325 | 1.0 | 1.0 | 0.00 | 0.00 | 0.00 | 92 | 1019.4 |
| 20260506010846 | 68 | 297 | 0.0 | 1.0 | 0.00 | 0.00 | 0.00 | 92 | 1019.5 |
| 20260506010344 | 68 | 320 | 1.0 | 1.0 | 0.00 | 0.00 | 0.00 | 92 | 1019.6 |
| 20260506005841 | 68 | 304 | 0.0 | 1.0 | 0.00 | 0.00 | 0.00 | 92 | 1019.8 |
| 20260506005337 | 68 | 332 | 1.0 | 1.0 | 0.00 | 0.00 | 0.00 | 92 | 1019.6 |
| 20260506004833 | 68 | 325 | 0.0 | 0.0 | 0.00 | 0.00 | 0.00 | 93 | 1019.4 |
| 20260506004331 | 68 | 310 | 0.0 | 0.0 | 0.00 | 0.00 | 0.00 | 93 | 1019.3 |
| 20260506003827 | 68 | 308 | 0.0 | 0.0 | 0.00 | 0.00 | 0.00 | 92 | 1019.3 |
| 20260506003323 | 68 | 302 | 0.0 | 0.0 | 0.00 | 0.00 | 0.00 | 92 | 1019.3 |
| 20260506002820 | 69 | 305 | 0.0 | 1.0 | 0.00 | 0.00 | 0.00 | 92 | 1019.5 |
| 20260506002317 | 69 | 304 | 0.0 | 0.0 | 0.00 | 0.00 | 0.00 | 91 | 1019.4 |
| 20260506001812 | 69 | 304 | 0.0 | 1.0 | 0.00 | 0.00 | 0.00 | 91 | 1019.4 |
| 20260506001310 | 69 | 292 | 0.0 | 0.0 | 0.00 | 0.00 | 0.00 | 91 | 1019.2 |
| 20260506000806 | 70 | 321 | 1.0 | 1.0 | 0.00 | 0.00 | 0.00 | 90 | 1019.2 |
| 20260506000304 | 70 | 304 | 1.0 | 1.0 | 0.00 | 0.00 | 0.00 | 89 | 1019.0 |
| 20260505235801 | 70 | 289 | 0.0 | 0.0 | 0.00 | 0.00 | 0.00 | 87 | 1019.2 |
| 20260505235258 | 71 | 313 | 1.0 | 1.0 | 0.00 | 0.00 | 0.00 | 87 | 1019.2 |
| 20260505234755 | 71 | 301 | 0.0 | 0.0 | 0.00 | 0.00 | 0.00 | 86 | 1019.2 |
| 20260505234253 | 72 | 294 | 1.0 | 1.0 | 0.00 | 0.00 | 0.00 | 83 | 1019.1 |
| 20260505233749 | 72 | 278 | 0.0 | 1.0 | 0.00 | 0.00 | 0.00 | 80 | 1018.9 |
| 20260505233247 | 72 | 304 | 1.0 | 1.0 | 0.00 | 0.00 | 0.00 | 82 | 1019.0 |
| 20260505232744 | 72 | 307 | 1.0 | 1.0 | 0.00 | 0.00 | 0.00 | 84 | 1018.9 |
| 20260505232242 | 72 | 294 | 1.0 | 2.0 | 0.00 | 0.00 | 0.00 | 85 | 1018.9 |
| 20260505231738 | 72 | 78 | 1.0 | 2.0 | 0.00 | 0.00 | 0.00 | 85 | 1018.6 |
| 20260505231237 | 72 | 30 | 2.0 | 3.0 | 0.00 | 0.00 | 0.00 | 85 | 1018.6 |
| 20260505230735 | 73 | 304 | 2.0 | 2.0 | 0.00 | 0.00 | 0.00 | 86 | 1018.5 |
| 20260505230231 | 73 | 273 | 2.0 | 2.0 | 0.00 | 0.00 | 0.00 | 85 | 1018.6 |
| 20260505225728 | 73 | 317 | 1.0 | 2.0 | 0.00 | 0.00 | 0.00 | 85 | 1018.5 |
| 20260505225225 | 73 | 287 | 3.0 | 3.0 | 0.00 | 0.00 | 0.00 | 84 | 1018.5 |
| 20260505224720 | 73 | 290 | 1.0 | 2.0 | 0.00 | 0.00 | 0.00 | 84 | 1018.3 |
| 20260505224218 | 73 | 276 | 2.0 | 3.0 | 0.00 | 0.00 | 0.00 | 85 | 1018.3 |
| 20260505223716 | 73 | 273 | 2.0 | 2.0 | 0.00 | 0.00 | 0.00 | 84 | 1018.2 |
| 20260505223211 | 73 | 326 | 2.0 | 3.0 | 0.00 | 0.00 | 0.00 | 83 | 1018.3 |
| 20260505222708 | 74 | 314 | 3.0 | 5.0 | 0.00 | 0.00 | 0.00 | 84 | 1018.2 |
| 20260505222203 | 74 | 276 | 1.0 | 1.0 | 0.00 | 0.00 | 0.00 | 84 | 1018.3 |
| 20260505221701 | 74 | 259 | 4.0 | 7.0 | 0.00 | 0.00 | 0.00 | 84 | 1018.4 |
| 20260505221158 | 75 | 294 | 2.0 | 3.0 | 0.00 | 0.00 | 0.00 | 83 | 1018.2 |
| 20260505220655 | 75 | 241 | 2.0 | 6.0 | 0.00 | 0.00 | 0.00 | 82 | 1018.1 |
| 20260505220152 | 75 | 302 | 2.0 | 2.0 | 0.00 | 0.00 | 0.00 | 83 | 1018.3 |
| 20260505215650 | 75 | 258 | 4.0 | 6.0 | 0.00 | 0.00 | 0.00 | 82 | 1018.1 |
| 20260505215148 | 76 | 291 | 1.0 | 1.0 | 0.00 | 0.00 | 0.00 | 83 | 1018.1 |
| 20260505214646 | 76 | 299 | 2.0 | 3.0 | 0.00 | 0.00 | 0.00 | 82 | 1018.1 |
| 20260505214143 | 77 | 257 | 1.0 | 1.0 | 0.00 | 0.00 | 0.00 | 80 | 1018.1 |
| 20260505213640 | 77 | 278 | 1.0 | 2.0 | 0.00 | 0.00 | 0.00 | 80 | 1018.0 |
| 20260505213137 | 78 | 234 | 1.0 | 2.0 | 0.00 | 0.00 | 0.00 | 79 | 1018.1 |
| 20260505212632 | 77 | 260 | 2.0 | 3.0 | 0.00 | 0.00 | 0.00 | 80 | 1018.2 |
| 20260505212130 | 78 | 297 | 4.0 | 5.0 | 0.00 | 0.00 | 0.00 | 79 | 1018.1 |
| 20260505211627 | 78 | 301 | 3.0 | 3.0 | 0.00 | 0.00 | 0.00 | 79 | 1018.1 |
| 20260505211124 | 78 | 256 | 5.0 | 7.0 | 0.00 | 0.00 | 0.00 | 77 | 1017.9 |
| 20260505210621 | 78 | 267 | 2.0 | 3.0 | 0.00 | 0.00 | 0.00 | 79 | 1017.8 |
| 20260505210118 | 79 | 287 | 1.0 | 2.0 | 0.00 | 0.00 | 0.00 | 77 | 1017.7 |
| 20260505205615 | 79 | 286 | 1.0 | 2.0 | 0.00 | 0.00 | 0.00 | 77 | 1017.9 |
| 20260505205113 | 79 | 274 | 2.0 | 5.0 | 0.00 | 0.00 | 0.00 | 77 | 1017.8 |
| 20260505204610 | 79 | 322 | 4.0 | 5.0 | 0.00 | 0.00 | 0.00 | 77 | 1017.8 |
| 20260505204107 | 79 | 293 | 3.0 | 5.0 | 0.00 | 0.00 | 0.00 | 78 | 1017.7 |
| 20260505203604 | 79 | 274 | 2.0 | 2.0 | 0.00 | 0.00 | 0.00 | 77 | 1017.6 |
| 20260505203101 | 79 | 275 | 2.0 | 2.0 | 0.00 | 0.00 | 0.00 | 78 | 1017.9 |
| 20260505202556 | 79 | 258 | 4.0 | 6.0 | 0.00 | 0.00 | 0.00 | 78 | 1018.0 |
| 20260505202053 | 79 | 299 | 3.0 | 6.0 | 0.00 | 0.00 | 0.00 | 77 | 1017.8 |
| 20260505201550 | 79 | 293 | 3.0 | 3.0 | 0.00 | 0.00 | 0.00 | 77 | 1017.7 |
| 20260505201048 | 79 | 288 | 3.0 | 5.0 | 0.00 | 0.00 | 0.00 | 78 | 1017.9 |
| 20260505200545 | 80 | 269 | 6.0 | 9.0 | 0.00 | 0.00 | 0.00 | 78 | 1017.8 |
| 20260505200042 | 80 | 283 | 3.0 | 3.0 | 0.00 | 0.00 | 0.00 | 77 | 1017.8 |
| 20260505195538 | 80 | 298 | 4.0 | 8.0 | 0.00 | 0.00 | 0.00 | 77 | 1018.0 |
| 20260505195036 | 81 | 314 | 4.0 | 5.0 | 0.00 | 0.00 | 0.00 | 76 | 1017.9 |
| 20260505194533 | 80 | 223 | 1.0 | 2.0 | 0.00 | 0.00 | 0.00 | 77 | 1017.9 |
| 20260505194028 | 81 | 258 | 3.0 | 5.0 | 0.00 | 0.00 | 0.00 | 77 | 1018.0 |
| 20260505193525 | 81 | 61 | 3.0 | 3.0 | 0.00 | 0.00 | 0.00 | 75 | 1018.4 |
| 20260505193023 | 82 | 76 | 2.0 | 2.0 | 0.00 | 0.00 | 0.00 | 77 | 1018.0 |
| 20260505192521 | 82 | 30 | 0.0 | 1.0 | 0.00 | 0.00 | 0.00 | 76 | 1018.1 |
| 20260505192018 | 81 | 71 | 2.0 | 2.0 | 0.00 | 0.00 | 0.00 | 78 | 1018.4 |
| 20260505191516 | 82 | 178 | 3.0 | 5.0 | 0.00 | 0.00 | 0.00 | 74 | 1018.2 |
| 20260505191014 | 82 | 285 | 1.0 | 1.0 | 0.00 | 0.00 | 0.00 | 73 | 1018.3 |
| 20260505190508 | 82 | 43 | 2.0 | 3.0 | 0.00 | 0.00 | 0.00 | 74 | 1018.2 |
| 20260505190005 | 82 | 280 | 2.0 | 3.0 | 0.00 | 0.00 | 0.00 | 75 | 1018.4 |
| 20260505185502 | 80 | 341 | 3.0 | 5.0 | 0.00 | 0.00 | 0.00 | 76 | 1018.5 |